Regional Weather Roundup
Issued by NWS

Home | Current Version | Previous Version | Text Only | Print | Product List | Glossary On
Versions: 1 2 3 4 5 6 7 8 9 10 11 12 13 14 15 16 17 18 19 20 21 22 23 24 25 26 27 28 29 30 31 32 33 34 35 36 37 38 39 40 41 42 43 44 45 46 47 48 49 50
000
ASUS45 KBOI 212310
RWRID
WEATHER ROUNDUP FOR IDAHO
NATIONAL WEATHER SERVICE BOISE ID
500 PM MDT THU AUG 21 2014

NOTE: "FAIR" INDICATES FEW OR NO CLOUDS BELOW 12000 FEET
WITH NO SIGNIFICANT WEATHER AND/OR OBSTRUCTIONS TO VISIBILITY

IDZ012-014-220000-
SOUTHWEST IDAHO


CITY           SKY/WX    TMP DP  RH WIND       PRES   REMARKS
BOISE          CLOUDY    82  37  20 N8        29.91F
CALDWELL       CLOUDY    81  37  21 N3        29.91F
MOUNTAIN HOME  PTSUNNY   84  46  26 NW7       29.89F
$$

IDZ016-017-220000-
SOUTHCENTRAL IDAHO


CITY           SKY/WX    TMP DP  RH WIND       PRES   REMARKS
BURLEY         PTSUNNY   74  54  49 SE5       29.99F
JEROME         MOSUNNY   76  52  43 SE8       29.99S
TWIN FALLS     PTSUNNY   70  58  65 CALM      30.00S
$$

IDZ019>023-220000-
SOUTHEAST IDAHO


CITY           SKY/WX    TMP DP  RH WIND       PRES   REMARKS
IDAHO FALLS    PTSUNNY   73  51  46 SW8       30.05S
POCATELLO      MOSUNNY   78  48  34 SW14      30.02F
REXBURG        PTSUNNY   69  50  50 SW3       30.07S
$$

IDZ006-010-011-018-031-032-220000-
CENTRAL IDAHO MOUNTAINS


CITY           SKY/WX    TMP DP  RH WIND       PRES   REMARKS
MCCALL         MOSUNNY   72  31  22 S6        30.01F
HAILEY         MOSUNNY   73  48  40 S10       30.05F
STANLEY          N/A     69  35  28 CALM      30.08F
SALMON         PTSUNNY   72  48  43 N6        29.94F
CHALLIS        PTSUNNY   72  46  39 S13       30.00S
$$

IDZ002-004-006-007-026-220000-
NORTHERN IDAHO


CITY           SKY/WX    TMP DP  RH WIND       PRES   REMARKS
LEWISTON       MOSUNNY   85  43  22 VRB3      29.85F
LOWELL           N/A     92  48  22 CALM      29.82F
COEUR D`ALENE  PTSUNNY   77  54  44 N8        29.91F
MULLAN PASS    PTSUNNY   59  49  69 CALM      30.10F
$$



USA.gov is the U.S. government's official web portal to all federal, state and local government web resources and services.